Jackson Hawkins Field, MS

3:59 PM CDT on September 22, 2019 (GMT -0500)
Hawkins

Weather History for KHKS - July, 2019

Change the Weather History Date:

Thursday, July 25, 2019

  Actual Average (KJAN) Record (KJAN)
Temperature  
Mean Temperature 78 °F -  
Max Temperature 89 °F 92 °F 103 °F (1952)
Min Temperature 68 °F 72 °F 61 °F (1904)
Cooling Degree Days 12    
Growing Degree Days 28 (Base 50)    
Moisture  
Dew Point 62 °F    
Average Humidity 62    
Maximum Humidity 87    
Minimum Humidity 37    
Precipitation  
Precipitation 0.00 in - - ()
Sea Level Pressure  
Sea Level Pressure 30.07 in    
Wind  
Wind Speed 4 mph (NE)    
Max Wind Speed 7 mph    
Max Gust Speed -    
Visibility 10 miles    
Events      
Averages and records for this station are not official NWS values.
T = Trace of Precipitation, MM = Missing Value Source: NWS Daily Summary

Daily Weather History Graph

Daily Weather History Graph

Search for Another Location

Airport or City:

Astronomy

Jul. 25, 2019 Rise Set
Actual Time 6:10 AM CDT 8:03 PM CDT
Civil Twilight 5:43 AM CDT 8:30 PM CDT
Nautical Twilight 5:10 AM CDT 9:03 PM CDT
Astronomical Twilight 4:35 AM CDT 9:38 PM CDT
Moon 12:44 AM CDT (7/25) 1:54 PM CDT (7/25)
Length of Visible Light 14h 47m
Length of Day
13h 52m
Last Quarter, 44% of the Moon is Illuminated
Jul 25
Last Quarter
Jul 31
New
Aug 7
First Quarter
Aug 15
Full
Aug 23
Last Quarter

Hourly Weather History & Observations

Time (CDT) Temp. Heat Index Dew Point Humidity Pressure Visibility Wind Dir Wind Speed Gust Speed Precip Events Conditions
12:53 AM 70.0 °F - 66.0 °F 87% 30.03 in 10.0 mi Calm Calm - N/A   Clear
1:53 AM 71.1 °F - 64.0 °F 78% 30.02 in 10.0 mi NNE 4.6 mph - N/A   Clear
2:53 AM 70.0 °F - 64.0 °F 81% 30.02 in 10.0 mi NNE 4.6 mph - N/A   Clear
3:53 AM 70.0 °F - 64.0 °F 81% 30.03 in 10.0 mi NE 4.6 mph - N/A   Clear
4:53 AM 68.0 °F - 63.0 °F 84% 30.04 in 10.0 mi NE 3.5 mph - N/A   Clear
5:53 AM 68.0 °F - 62.1 °F 81% 30.06 in 10.0 mi NNE 3.5 mph - N/A   Clear
6:53 AM 68.0 °F - 62.1 °F 81% 30.08 in 10.0 mi NE 3.5 mph - N/A   Clear
7:53 AM 72.0 °F - 63.0 °F 73% 30.10 in 10.0 mi ENE 3.5 mph - N/A   Clear
8:53 AM 75.9 °F - 63.0 °F 64% 30.12 in 10.0 mi ENE 6.9 mph - N/A   Partly Cloudy
9:53 AM 79.0 °F - 62.1 °F 56% 30.11 in - ENE 6.9 mph - N/A   Clear
10:53 AM - - - N/A% 30.13 in 10.0 mi ENE 5.8 mph - N/A   Clear
11:53 AM 84.0 °F 85.8 °F 64.9 °F 53% 30.10 in 10.0 mi SE 4.6 mph - N/A   Clear
12:53 PM 84.0 °F 84.4 °F 61.0 °F 46% 30.09 in 10.0 mi Variable 4.6 mph - N/A   Scattered Clouds
1:53 PM 87.1 °F 87.5 °F 62.1 °F 43% 30.07 in 10.0 mi Variable 5.8 mph - N/A   Clear
2:53 PM 86.0 °F 85.0 °F 57.9 °F 38% 30.07 in 10.0 mi ENE 4.6 mph - N/A   Mostly Cloudy
3:53 PM 87.1 °F 86.5 °F 59.0 °F 39% 30.06 in 10.0 mi East 5.8 mph - N/A   Scattered Clouds
4:53 PM 87.1 °F 86.1 °F 57.9 °F 37% 30.05 in 10.0 mi ENE 5.8 mph - N/A   Clear
5:53 PM 87.1 °F 86.5 °F 59.0 °F 39% 30.04 in 10.0 mi NE 5.8 mph - N/A   Clear
6:53 PM 84.9 °F 84.4 °F 59.0 °F 41% 30.06 in 10.0 mi NE 4.6 mph - N/A   Partly Cloudy
7:53 PM 81.0 °F 81.7 °F 61.0 °F 50% 30.07 in 10.0 mi NE 3.5 mph - N/A   Clear
8:53 PM 78.1 °F - 61.0 °F 56% 30.07 in 10.0 mi Calm Calm - N/A   Clear
10:53 PM 71.1 °F - 64.0 °F 78% 30.12 in 10.0 mi Calm Calm - N/A   Clear
11:53 PM 70.0 °F - 64.0 °F 81% 30.09 in 10.0 mi Calm Calm - N/A   Clear